Tracking 32139 objects as of 16-Nov-2025
HD Live streaming from Space Station
objects crossing your sky now

STARLINK-35247

Track STARLINK-35247 now!
10-day predictions
STARLINK-35247 is classified as:


NORAD ID: 65622
Int'l Code: 2025-210A
Perigee: 453.3 km
Apogee: 455.2 km
Inclination: 53.2 °
Period: 93.5 minutes
Semi major axis: 6825 km
RCS: Unknown
Launch date: September 18, 2025
Source: United States (US)
Launch site: AIR FORCE EASTERN TEST RANGE (AFETR)
Your satellite tracking list
Your tracking list is empty




NASA's NSSDC Master Catalog

Two Line Element Set (TLE):
1 65622U 25210A   25319.83809933  .00065680  00000-0  16354-2 0  9990
2 65622  53.1576 116.3591 0001403  66.1845 293.9307 15.39665513 10293
Source of the keplerian elements: AFSPC